NOZ45C ENGM-EGCC

Flight info

Callsign NOZ45C
Flight time 1h 49m
Altitude 36000
Route ATLAP DCT IPMOD DCT ALOTI DCT TILNI
Aircraft B738/M-SDE2E3FGHIRWXY/LB1

Departure

Time 2026-05-05 17:20
Airport Oslo-Gardermoen International Airport (ENGM)

Arrival

Time 2026-05-05 19:09
Airport Manchester Airport (EGCC)
Time Latitude Longitude Altitude Speed Heading
2026-05-05 17:05 60.19309 11.08591 671 ft 0 kts 105°
2026-05-05 17:14 60.19311 11.08577 671 ft 4 kts 105°
2026-05-05 17:14 60.19318 11.08525 669 ft 4 kts 107°
2026-05-05 17:14 60.19328 11.08475 668 ft 4 kts 122°
2026-05-05 17:14 60.19345 11.08436 668 ft 4 kts 155°
2026-05-05 17:15 60.19362 11.08429 667 ft 0 kts 197°
2026-05-05 17:17 60.19340 11.08416 667 ft 14 kts 197°
2026-05-05 17:17 60.19149 11.08302 668 ft 40 kts 196°
2026-05-05 17:18 60.18882 11.08148 668 ft 39 kts 195°
2026-05-05 17:18 60.18631 11.08002 666 ft 36 kts 196°
2026-05-05 17:18 60.18419 11.07884 665 ft 22 kts 194°
2026-05-05 17:18 60.18371 11.07675 664 ft 21 kts 311°
2026-05-05 17:19 60.18487 11.07502 664 ft 21 kts 320°
2026-05-05 17:19 60.18570 11.07416 662 ft 0 kts 15°
2026-05-05 17:19 60.18595 11.07430 663 ft 17 kts 15°
2026-05-05 17:20 60.19013 11.07667 670 ft 109 kts 15°
2026-05-05 17:20 60.20013 11.08207 735 ft 182 kts 11°
2026-05-05 17:20 60.21317 11.08883 1718 ft 196 kts
2026-05-05 17:20 60.22678 11.09761 2551 ft 222 kts 17°
2026-05-05 17:21 60.24177 11.10789 3275 ft 231 kts 12°
2026-05-05 17:21 60.25755 11.11464 3962 ft 231 kts 357°
2026-05-05 17:21 60.27322 11.11110 4663 ft 231 kts 348°
2026-05-05 17:22 60.30352 11.09147 5988 ft 230 kts 315°
2026-05-05 17:22 60.31230 11.06471 6607 ft 233 kts 288°
2026-05-05 17:22 60.31373 11.03246 7268 ft 235 kts 263°
2026-05-05 17:22 60.30743 11.00174 7875 ft 239 kts 243°
2026-05-05 17:23 60.30324 10.96988 8516 ft 238 kts 273°
2026-05-05 17:23 60.30648 10.93697 9132 ft 241 kts 285°
2026-05-05 17:23 60.31106 10.90428 9756 ft 244 kts 284°
2026-05-05 17:23 60.31542 10.87129 10374 ft 244 kts 286°
2026-05-05 17:24 60.31980 10.83805 10889 ft 247 kts 275°
2026-05-05 17:24 60.31671 10.80415 11491 ft 250 kts 246°
2026-05-05 17:24 60.30599 10.77626 12054 ft 257 kts 224°
2026-05-05 17:24 60.29161 10.75422 12580 ft 260 kts 227°
2026-05-05 17:25 60.28282 10.72341 13103 ft 254 kts 255°
2026-05-05 17:25 60.27969 10.70070 13499 ft 255 kts 257°
2026-05-05 17:25 60.27358 10.65440 14255 ft 255 kts 257°
2026-05-05 17:25 60.26894 10.62012 14841 ft 253 kts 257°
2026-05-05 17:26 60.26420 10.58598 15395 ft 252 kts 257°
2026-05-05 17:26 60.25940 10.55211 15953 ft 251 kts 257°
2026-05-05 17:26 60.25454 10.51837 16490 ft 251 kts 256°
2026-05-05 17:26 60.24964 10.48471 17043 ft 250 kts 256°
2026-05-05 17:27 60.24477 10.45156 17598 ft 249 kts 256°
2026-05-05 17:27 60.23976 10.41769 18172 ft 249 kts 256°
2026-05-05 17:27 60.23487 10.38480 18619 ft 248 kts 257°
2026-05-05 17:27 60.22992 10.35168 19096 ft 246 kts 257°
2026-05-05 17:28 60.22500 10.31885 19548 ft 245 kts 257°
2026-05-05 17:28 60.22010 10.28623 20002 ft 243 kts 257°
2026-05-05 17:28 60.21522 10.25380 20448 ft 242 kts 257°
2026-05-05 17:28 60.21036 10.22161 20890 ft 240 kts 257°
2026-05-05 17:29 60.20550 10.18953 21299 ft 239 kts 257°
2026-05-05 17:29 60.20066 10.15754 21700 ft 239 kts 257°
2026-05-05 17:29 60.19581 10.12561 22105 ft 238 kts 257°
2026-05-05 17:29 60.19097 10.09384 22497 ft 238 kts 257°
2026-05-05 17:30 60.18612 10.06202 22862 ft 238 kts 258°
2026-05-05 17:30 60.18128 10.03035 23265 ft 237 kts 258°
2026-05-05 17:30 60.17645 9.99875 23597 ft 236 kts 258°
2026-05-05 17:30 60.17162 9.96717 23847 ft 237 kts 258°
2026-05-05 17:31 60.16674 9.93534 24061 ft 239 kts 258°
2026-05-05 17:31 60.16183 9.90339 24302 ft 240 kts 258°
2026-05-05 17:31 60.15687 9.87128 24533 ft 241 kts 258°
2026-05-05 17:31 60.15357 9.84993 24704 ft 242 kts 258°
2026-05-05 17:32 60.14854 9.81759 24926 ft 243 kts 257°
2026-05-05 17:32 60.14219 9.78582 25157 ft 248 kts 252°
2026-05-05 17:32 60.13439 9.75478 25380 ft 250 kts 250°
2026-05-05 17:32 60.12622 9.72383 25528 ft 251 kts 250°
2026-05-05 17:33 60.11798 9.69283 25713 ft 253 kts 250°
2026-05-05 17:33 60.10967 9.66164 25894 ft 254 kts 250°
2026-05-05 17:33 60.10134 9.63032 26032 ft 255 kts 250°
2026-05-05 17:33 60.09300 9.59891 26232 ft 255 kts 250°
2026-05-05 17:34 60.08465 9.56744 26435 ft 256 kts 250°
2026-05-05 17:34 60.07627 9.53587 26631 ft 258 kts 250°
2026-05-05 17:34 60.06785 9.50415 26823 ft 259 kts 249°
2026-05-05 17:34 60.05939 9.47232 27006 ft 259 kts 249°
2026-05-05 17:35 60.05091 9.44042 27168 ft 260 kts 249°
2026-05-05 17:35 60.04241 9.40850 27330 ft 260 kts 249°
2026-05-05 17:35 60.03385 9.37637 27445 ft 262 kts 249°
2026-05-05 17:35 60.02525 9.34413 27579 ft 264 kts 249°
2026-05-05 17:36 60.01659 9.31170 27746 ft 265 kts 249°
2026-05-05 17:36 60.00789 9.27916 27946 ft 266 kts 249°
2026-05-05 17:36 59.99913 9.24647 28031 ft 268 kts 249°
2026-05-05 17:36 59.99029 9.21348 28175 ft 268 kts 249°
2026-05-05 17:37 59.98145 9.18061 28374 ft 269 kts 249°
2026-05-05 17:37 59.97259 9.14770 28506 ft 270 kts 249°
2026-05-05 17:37 59.96367 9.11458 28621 ft 272 kts 249°
2026-05-05 17:37 59.95471 9.08134 28770 ft 272 kts 249°
2026-05-05 17:38 59.94568 9.04795 28898 ft 273 kts 249°
2026-05-05 17:38 59.93665 9.01458 29034 ft 274 kts 248°
2026-05-05 17:38 59.92758 8.98109 29147 ft 275 kts 248°
2026-05-05 17:38 59.91846 8.94751 29277 ft 276 kts 248°
2026-05-05 17:39 59.90930 8.91378 29394 ft 277 kts 248°
2026-05-05 17:39 59.90009 8.87995 29518 ft 278 kts 249°
2026-05-05 17:39 59.89082 8.84596 29613 ft 279 kts 248°
2026-05-05 17:39 59.88154 8.81199 29789 ft 279 kts 248°
2026-05-05 17:40 59.87226 8.77803 29884 ft 280 kts 248°
2026-05-05 17:40 59.86291 8.74389 29971 ft 281 kts 248°
2026-05-05 17:40 59.85353 8.70968 30069 ft 282 kts 248°
2026-05-05 17:40 59.84412 8.67540 30139 ft 283 kts 248°
2026-05-05 17:41 59.83465 8.64098 30218 ft 284 kts 248°
2026-05-05 17:41 59.82515 8.60647 30274 ft 285 kts 248°
2026-05-05 17:41 59.81570 8.57225 30335 ft 286 kts 248°
2026-05-05 17:41 59.80600 8.53712 30391 ft 287 kts 248°
2026-05-05 17:42 59.79638 8.50238 30481 ft 287 kts 247°
2026-05-05 17:42 59.78686 8.46800 30539 ft 288 kts 247°
2026-05-05 17:42 59.77719 8.43312 30599 ft 289 kts 247°
2026-05-05 17:42 59.76749 8.39818 30667 ft 290 kts 247°
2026-05-05 17:43 59.75773 8.36316 30737 ft 290 kts 247°
2026-05-05 17:43 59.74792 8.32800 30806 ft 291 kts 247°
2026-05-05 17:43 59.73789 8.29297 30851 ft 294 kts 244°
2026-05-05 17:43 59.72654 8.25904 30934 ft 296 kts 242°
2026-05-05 17:44 59.71471 8.22558 30982 ft 297 kts 242°
2026-05-05 17:44 59.70275 8.19223 31055 ft 297 kts 242°
2026-05-05 17:44 59.69096 8.15956 31464 ft 287 kts 242°
2026-05-05 17:44 59.67946 8.12759 31612 ft 287 kts 242°
2026-05-05 17:45 59.66783 8.09506 31610 ft 292 kts 242°
2026-05-05 17:45 59.64366 8.02727 31713 ft 311 kts 241°
2026-05-05 17:46 59.61790 7.95517 31883 ft 330 kts 241°
2026-05-05 17:46 59.60449 7.91779 32098 ft 334 kts 240°
2026-05-05 17:46 59.59103 7.88043 32515 ft 335 kts 240°
2026-05-05 17:46 59.57754 7.84303 32905 ft 334 kts 240°
2026-05-05 17:47 59.56407 7.80576 33307 ft 334 kts 240°
2026-05-05 17:47 59.55062 7.76853 33717 ft 332 kts 240°
2026-05-05 17:47 59.53707 7.73102 33789 ft 340 kts 240°
2026-05-05 17:48 59.50904 7.65350 33933 ft 354 kts 239°
2026-05-05 17:48 59.47982 7.57303 34056 ft 368 kts 239°
2026-05-05 17:49 59.44942 7.48966 34155 ft 381 kts 239°
2026-05-05 17:49 59.41793 7.40362 34257 ft 394 kts 239°
2026-05-05 17:50 59.38574 7.31607 34479 ft 400 kts 238°
2026-05-05 17:50 59.36941 7.27181 34701 ft 401 kts 238°
2026-05-05 17:50 59.35304 7.22751 34919 ft 401 kts 238°
2026-05-05 17:50 59.33663 7.18318 35083 ft 403 kts 238°
2026-05-05 17:51 59.32012 7.13863 35210 ft 405 kts 238°
2026-05-05 17:51 59.30351 7.09388 35339 ft 408 kts 238°
2026-05-05 17:51 59.28681 7.04897 35512 ft 409 kts 238°
2026-05-05 17:51 59.27003 7.00395 35723 ft 409 kts 238°
2026-05-05 17:52 59.25323 6.95897 35900 ft 410 kts 238°
2026-05-05 17:52 59.21938 6.86854 35976 ft 413 kts 237°
2026-05-05 17:53 59.18546 6.77831 35987 ft 411 kts 237°
2026-05-05 17:53 59.15171 6.68890 35985 ft 409 kts 237°
2026-05-05 17:54 59.11805 6.60001 35984 ft 407 kts 237°
2026-05-05 17:54 59.08441 6.51151 35994 ft 406 kts 237°
2026-05-05 17:55 59.05073 6.42321 36000 ft 407 kts 237°
2026-05-05 17:55 59.01689 6.33482 36002 ft 409 kts 237°
2026-05-05 17:56 58.98281 6.24617 36008 ft 411 kts 237°
2026-05-05 17:56 58.94852 6.15730 36000 ft 412 kts 237°
2026-05-05 17:57 58.91406 6.06833 36001 ft 413 kts 237°
2026-05-05 17:57 58.87952 5.97949 36015 ft 413 kts 237°
2026-05-05 17:58 58.84484 5.89063 36015 ft 414 kts 237°
2026-05-05 17:58 58.81011 5.80198 36014 ft 414 kts 236°
2026-05-05 17:59 58.77556 5.71410 36022 ft 413 kts 236°
2026-05-05 17:59 58.74076 5.62593 36010 ft 413 kts 236°
2026-05-05 18:00 58.70593 5.53800 36017 ft 413 kts 236°
2026-05-05 18:00 58.67106 5.45028 36019 ft 413 kts 236°
2026-05-05 18:01 58.63613 5.36276 36020 ft 413 kts 236°
2026-05-05 18:01 58.60116 5.27546 36015 ft 412 kts 236°
2026-05-05 18:02 58.56612 5.18829 36018 ft 412 kts 236°
2026-05-05 18:02 58.53127 5.10192 36019 ft 413 kts 236°
2026-05-05 18:03 58.49609 5.01506 36017 ft 413 kts 236°
2026-05-05 18:03 58.46085 4.92836 36021 ft 413 kts 236°
2026-05-05 18:04 58.42550 4.84169 36023 ft 413 kts 236°
2026-05-05 18:04 58.39006 4.75516 36023 ft 414 kts 236°
2026-05-05 18:05 58.35459 4.66884 36027 ft 414 kts 235°
2026-05-05 18:05 58.31899 4.58253 36029 ft 414 kts 235°
2026-05-05 18:06 58.28334 4.49639 36030 ft 414 kts 235°
2026-05-05 18:06 58.24763 4.41045 36029 ft 415 kts 235°
2026-05-05 18:07 58.21182 4.32457 36029 ft 415 kts 235°
2026-05-05 18:07 58.17600 4.23897 36032 ft 415 kts 235°
2026-05-05 18:08 58.14006 4.15339 36035 ft 415 kts 235°
2026-05-05 18:08 58.10406 4.06798 36031 ft 415 kts 234°
2026-05-05 18:09 58.06800 3.98272 36034 ft 415 kts 234°
2026-05-05 18:09 58.03186 3.89758 36031 ft 415 kts 234°
2026-05-05 18:10 57.99568 3.81266 36036 ft 416 kts 234°
2026-05-05 18:10 57.95940 3.72776 36043 ft 416 kts 234°
2026-05-05 18:11 57.92306 3.64304 36040 ft 416 kts 234°
2026-05-05 18:11 57.88405 3.56234 36045 ft 418 kts 228°
2026-05-05 18:11 57.86367 3.52512 35831 ft 409 kts 228°
2026-05-05 18:12 57.84332 3.48826 35350 ft 405 kts 228°
2026-05-05 18:12 57.82276 3.45103 34682 ft 406 kts 228°
2026-05-05 18:12 57.80265 3.41452 33999 ft 408 kts 228°
2026-05-05 18:12 57.78199 3.37697 33184 ft 409 kts 228°
2026-05-05 18:13 57.76177 3.34018 32342 ft 412 kts 228°
2026-05-05 18:13 57.74118 3.30273 31467 ft 414 kts 228°
2026-05-05 18:13 57.72041 3.26499 30580 ft 417 kts 228°
2026-05-05 18:13 57.69952 3.22708 29622 ft 420 kts 228°
2026-05-05 18:14 57.67849 3.18899 28523 ft 422 kts 228°
2026-05-05 18:14 57.65725 3.15058 27356 ft 427 kts 228°
2026-05-05 18:14 57.63587 3.11198 26451 ft 427 kts 228°
2026-05-05 18:14 57.61480 3.07412 26269 ft 419 kts 228°
2026-05-05 18:15 57.59359 3.03596 26161 ft 428 kts 228°
2026-05-05 18:15 57.57194 2.99703 26077 ft 436 kts 228°
2026-05-05 18:15 57.55745 2.97100 26054 ft 439 kts 228°
2026-05-05 18:15 57.53545 2.93162 26039 ft 438 kts 227°
2026-05-05 18:16 57.51347 2.89238 26027 ft 437 kts 227°
2026-05-05 18:16 57.49157 2.85336 26031 ft 436 kts 227°
2026-05-05 18:16 57.46964 2.81432 26033 ft 437 kts 227°
2026-05-05 18:16 57.44770 2.77533 26027 ft 437 kts 227°
2026-05-05 18:17 57.42572 2.73633 26024 ft 437 kts 227°
2026-05-05 18:17 57.40376 2.69743 26025 ft 437 kts 227°
2026-05-05 18:17 57.38172 2.65845 26027 ft 437 kts 227°
2026-05-05 18:17 57.35965 2.61949 26032 ft 438 kts 227°
2026-05-05 18:18 57.33759 2.58061 26031 ft 438 kts 227°
2026-05-05 18:18 57.31553 2.54181 26030 ft 438 kts 227°
2026-05-05 18:18 57.29340 2.50294 26035 ft 439 kts 227°
2026-05-05 18:18 57.27123 2.46408 26035 ft 439 kts 227°
2026-05-05 18:19 57.24909 2.42532 26036 ft 439 kts 227°
2026-05-05 18:19 57.22684 2.38646 26039 ft 440 kts 227°
2026-05-05 18:19 57.20466 2.34778 26041 ft 438 kts 227°
2026-05-05 18:19 57.18285 2.30988 26029 ft 422 kts 227°
2026-05-05 18:20 57.16172 2.27325 26030 ft 414 kts 227°
2026-05-05 18:20 57.14081 2.23700 26039 ft 413 kts 227°
2026-05-05 18:20 57.11991 2.20076 26048 ft 412 kts 227°
2026-05-05 18:20 57.09907 2.16467 26049 ft 411 kts 227°
2026-05-05 18:21 57.07823 2.12866 26051 ft 411 kts 227°
2026-05-05 18:21 57.05741 2.09272 26050 ft 411 kts 226°
2026-05-05 18:21 57.03655 2.05681 26055 ft 411 kts 226°
2026-05-05 18:21 57.01564 2.02087 26053 ft 411 kts 226°
2026-05-05 18:22 56.99474 1.98501 26055 ft 412 kts 226°
2026-05-05 18:22 56.97380 1.94913 26057 ft 412 kts 226°
2026-05-05 18:22 56.95309 1.91372 26054 ft 413 kts 226°
2026-05-05 18:22 56.93180 1.87737 26055 ft 413 kts 226°
2026-05-05 18:23 56.91078 1.84153 26058 ft 414 kts 226°
2026-05-05 18:23 56.88995 1.80609 26058 ft 414 kts 226°
2026-05-05 18:23 56.86879 1.77013 26059 ft 415 kts 226°
2026-05-05 18:23 56.84767 1.73430 26057 ft 415 kts 226°
2026-05-05 18:24 56.82646 1.69840 26060 ft 416 kts 226°
2026-05-05 18:24 56.80525 1.66253 26058 ft 416 kts 226°
2026-05-05 18:24 56.78397 1.62661 26059 ft 416 kts 226°
2026-05-05 18:24 56.76268 1.59073 26060 ft 416 kts 226°
2026-05-05 18:25 56.74142 1.55496 26055 ft 416 kts 226°
2026-05-05 18:25 56.72701 1.53074 26058 ft 417 kts 226°
2026-05-05 18:25 56.69877 1.48336 26053 ft 417 kts 225°
2026-05-05 18:25 56.67744 1.44766 26064 ft 417 kts 225°
2026-05-05 18:26 56.65609 1.41195 26066 ft 417 kts 225°
2026-05-05 18:26 56.63465 1.37616 26059 ft 417 kts 225°
2026-05-05 18:26 56.61324 1.34049 26061 ft 417 kts 225°
2026-05-05 18:26 56.59186 1.30493 26061 ft 417 kts 225°
2026-05-05 18:27 56.57044 1.26934 26059 ft 418 kts 225°
2026-05-05 18:27 56.54900 1.23378 26056 ft 418 kts 225°
2026-05-05 18:27 56.52754 1.19826 26062 ft 418 kts 225°
2026-05-05 18:27 56.50605 1.16272 26057 ft 418 kts 225°
2026-05-05 18:28 56.46303 1.09177 26062 ft 419 kts 225°
2026-05-05 18:28 56.44142 1.05623 26055 ft 419 kts 225°
2026-05-05 18:28 56.41984 1.02079 26058 ft 420 kts 225°
2026-05-05 18:29 56.39823 0.98535 26059 ft 420 kts 225°
2026-05-05 18:29 56.37685 0.95033 26060 ft 420 kts 225°
2026-05-05 18:29 56.35517 0.91490 26060 ft 421 kts 225°
2026-05-05 18:29 56.33347 0.87948 26060 ft 421 kts 224°
2026-05-05 18:30 56.31176 0.84411 26067 ft 421 kts 224°
2026-05-05 18:30 56.28995 0.80863 26062 ft 421 kts 224°
2026-05-05 18:30 56.26818 0.77327 26059 ft 422 kts 224°
2026-05-05 18:30 56.24639 0.73794 26061 ft 422 kts 224°
2026-05-05 18:31 56.22460 0.70265 26058 ft 422 kts 224°
2026-05-05 18:31 56.20276 0.66735 26057 ft 422 kts 224°
2026-05-05 18:31 56.18093 0.63212 26061 ft 422 kts 224°
2026-05-05 18:31 56.15906 0.59689 26061 ft 422 kts 224°
2026-05-05 18:32 56.13721 0.56174 26062 ft 422 kts 224°
2026-05-05 18:32 56.11528 0.52652 26061 ft 422 kts 224°
2026-05-05 18:32 56.09341 0.49145 26065 ft 422 kts 224°
2026-05-05 18:32 56.07149 0.45635 26061 ft 422 kts 224°
2026-05-05 18:33 56.04958 0.42132 26063 ft 423 kts 224°
2026-05-05 18:33 56.02765 0.38632 26062 ft 423 kts 224°
2026-05-05 18:33 56.00572 0.35138 26062 ft 423 kts 224°
2026-05-05 18:33 55.98376 0.31644 26061 ft 423 kts 224°
2026-05-05 18:34 55.96176 0.28150 26062 ft 423 kts 224°
2026-05-05 18:34 55.94007 0.24709 26063 ft 423 kts 224°
2026-05-05 18:34 55.91804 0.21222 26066 ft 423 kts 224°
2026-05-05 18:34 55.89601 0.17739 26064 ft 423 kts 224°
2026-05-05 18:35 55.87396 0.14259 26064 ft 423 kts 224°
2026-05-05 18:35 55.85186 0.10777 26065 ft 423 kts 223°
2026-05-05 18:35 55.82984 0.07312 26062 ft 423 kts 223°
2026-05-05 18:35 55.80772 0.03837 26064 ft 423 kts 223°
2026-05-05 18:36 55.78568 0.00379 26064 ft 423 kts 223°
2026-05-05 18:36 55.76363 -0.03074 26062 ft 423 kts 223°
2026-05-05 18:36 55.74153 -0.06529 26060 ft 423 kts 223°
2026-05-05 18:36 55.71941 -0.09981 26064 ft 423 kts 223°
2026-05-05 18:37 55.69732 -0.13424 26062 ft 423 kts 223°
2026-05-05 18:37 55.67520 -0.16866 26062 ft 423 kts 223°
2026-05-05 18:37 55.65309 -0.20303 26065 ft 423 kts 223°
2026-05-05 18:37 55.63096 -0.23735 26065 ft 423 kts 223°
2026-05-05 18:38 55.60910 -0.27122 26063 ft 423 kts 223°
2026-05-05 18:38 55.58699 -0.30541 26066 ft 423 kts 223°
2026-05-05 18:38 55.56478 -0.33970 26066 ft 423 kts 223°
2026-05-05 18:38 55.54258 -0.37394 26063 ft 423 kts 223°
2026-05-05 18:39 55.52039 -0.40809 26068 ft 423 kts 223°
2026-05-05 18:39 55.49823 -0.44215 26069 ft 423 kts 223°
2026-05-05 18:39 55.47602 -0.47623 26066 ft 423 kts 223°
2026-05-05 18:39 55.45380 -0.51027 26069 ft 423 kts 223°
2026-05-05 18:40 55.43159 -0.54425 26068 ft 423 kts 223°
2026-05-05 18:40 55.40941 -0.57813 26067 ft 423 kts 223°
2026-05-05 18:40 55.38720 -0.61200 26068 ft 422 kts 223°
2026-05-05 18:40 55.36494 -0.64590 26067 ft 422 kts 223°
2026-05-05 18:41 55.34274 -0.67965 26064 ft 422 kts 223°
2026-05-05 18:41 55.32046 -0.71347 26059 ft 422 kts 223°
2026-05-05 18:41 55.29826 -0.74711 26067 ft 422 kts 223°
2026-05-05 18:41 55.27626 -0.78042 26063 ft 423 kts 223°
2026-05-05 18:42 55.25397 -0.81409 26060 ft 423 kts 223°
2026-05-05 18:42 55.23170 -0.84770 26068 ft 423 kts 223°
2026-05-05 18:42 55.20941 -0.88128 26068 ft 423 kts 223°
2026-05-05 18:42 55.18711 -0.91481 26063 ft 423 kts 222°
2026-05-05 18:43 55.16479 -0.94833 26069 ft 423 kts 223°
2026-05-05 18:43 55.14249 -0.98177 26067 ft 422 kts 222°
2026-05-05 18:43 55.12016 -1.01520 26068 ft 422 kts 222°
2026-05-05 18:43 55.09784 -1.04857 26072 ft 422 kts 222°
2026-05-05 18:44 55.07553 -1.08188 26069 ft 422 kts 222°
2026-05-05 18:44 55.05315 -1.11522 26067 ft 422 kts 222°
2026-05-05 18:44 55.03081 -1.14847 26081 ft 422 kts 222°
2026-05-05 18:44 55.00857 -1.18152 26007 ft 415 kts 222°
2026-05-05 18:45 54.98679 -1.21381 25441 ft 409 kts 222°
2026-05-05 18:45 54.96506 -1.24600 24656 ft 410 kts 222°
2026-05-05 18:45 54.94328 -1.27823 23859 ft 412 kts 222°
2026-05-05 18:45 54.92145 -1.31048 23096 ft 411 kts 222°
2026-05-05 18:46 54.89981 -1.34239 22457 ft 405 kts 222°
2026-05-05 18:46 54.87844 -1.37386 21806 ft 401 kts 222°
2026-05-05 18:46 54.85727 -1.40498 21182 ft 397 kts 222°
2026-05-05 18:46 54.83625 -1.43586 20540 ft 394 kts 222°
2026-05-05 18:47 54.81537 -1.46648 20253 ft 394 kts 222°
2026-05-05 18:47 54.79438 -1.49724 20140 ft 394 kts 222°
2026-05-05 18:47 54.77343 -1.52790 20080 ft 393 kts 222°
2026-05-05 18:47 54.75254 -1.55840 20087 ft 392 kts 222°
2026-05-05 18:48 54.73166 -1.58887 20080 ft 393 kts 222°
2026-05-05 18:48 54.71077 -1.61929 20075 ft 393 kts 222°
2026-05-05 18:48 54.68986 -1.64971 20075 ft 393 kts 222°
2026-05-05 18:48 54.66896 -1.68007 20075 ft 393 kts 222°
2026-05-05 18:49 54.64803 -1.71043 20074 ft 392 kts 222°
2026-05-05 18:49 54.62708 -1.74079 20076 ft 392 kts 222°
2026-05-05 18:49 54.60619 -1.77102 20078 ft 392 kts 222°
2026-05-05 18:49 54.58528 -1.80123 20078 ft 392 kts 222°
2026-05-05 18:50 54.56434 -1.83134 20080 ft 392 kts 221°
2026-05-05 18:50 54.54089 -1.85566 20073 ft 398 kts 204°
2026-05-05 18:50 54.51401 -1.86781 20092 ft 401 kts 194°
2026-05-05 18:50 54.48645 -1.87623 20072 ft 403 kts 192°
2026-05-05 18:51 54.45878 -1.88416 20070 ft 403 kts 192°
2026-05-05 18:51 54.43116 -1.89217 20070 ft 403 kts 193°
2026-05-05 18:51 54.40389 -1.90031 20086 ft 403 kts 193°
2026-05-05 18:51 54.37628 -1.90877 20072 ft 403 kts 193°
2026-05-05 18:52 54.34870 -1.91734 20071 ft 403 kts 193°
2026-05-05 18:52 54.32117 -1.92593 20075 ft 403 kts 193°
2026-05-05 18:52 54.29354 -1.93455 20067 ft 403 kts 193°
2026-05-05 18:52 54.26598 -1.94312 20083 ft 403 kts 193°
2026-05-05 18:53 54.23913 -1.95575 20054 ft 397 kts 208°
2026-05-05 18:53 54.21622 -1.98121 20078 ft 392 kts 224°
2026-05-05 18:53 54.19862 -2.01624 20078 ft 389 kts 237°
2026-05-05 18:53 54.18343 -2.05444 20067 ft 389 kts 237°
2026-05-05 18:54 54.16824 -2.09271 20069 ft 390 kts 237°
2026-05-05 18:54 54.15281 -2.13074 20067 ft 390 kts 236°
2026-05-05 18:54 54.13645 -2.16784 20059 ft 391 kts 233°
2026-05-05 18:54 54.11956 -2.20414 20044 ft 391 kts 233°
2026-05-05 18:55 54.10255 -2.24040 20052 ft 391 kts 233°
2026-05-05 18:55 54.08566 -2.27669 20049 ft 391 kts 233°
2026-05-05 18:55 54.06885 -2.31315 20037 ft 391 kts 233°
2026-05-05 18:55 54.05207 -2.34962 20045 ft 391 kts 233°
2026-05-05 18:56 54.03459 -2.38508 20025 ft 393 kts 225°
2026-05-05 18:56 54.01187 -2.41072 20040 ft 392 kts 206°
2026-05-05 18:56 53.98646 -2.42346 19928 ft 382 kts 192°
2026-05-05 18:56 53.95961 -2.42410 18931 ft 397 kts 175°
2026-05-05 18:57 53.93210 -2.41709 17965 ft 404 kts 173°
2026-05-05 18:57 53.90418 -2.40946 16891 ft 409 kts 173°
2026-05-05 18:57 53.87586 -2.40175 15859 ft 414 kts 173°
2026-05-05 18:57 53.84729 -2.39418 14857 ft 417 kts 173°
2026-05-05 18:58 53.81855 -2.38676 13890 ft 419 kts 173°
2026-05-05 18:58 53.78993 -2.37950 13405 ft 409 kts 173°
2026-05-05 18:58 53.76247 -2.37259 13279 ft 390 kts 173°
2026-05-05 18:58 53.73621 -2.36600 13054 ft 374 kts 173°
2026-05-05 18:59 53.71010 -2.35951 11613 ft 385 kts 173°
2026-05-05 18:59 53.68351 -2.35295 10308 ft 387 kts 174°
2026-05-05 18:59 53.66568 -2.35110 9390 ft 386 kts 185°
2026-05-05 18:59 53.63971 -2.36062 8197 ft 379 kts 198°
2026-05-05 19:00 53.61476 -2.37269 7131 ft 370 kts 196°
2026-05-05 19:00 53.59001 -2.38366 6176 ft 362 kts 195°
2026-05-05 19:00 53.56644 -2.39374 5881 ft 336 kts 194°
2026-05-05 19:00 53.54463 -2.40300 5686 ft 312 kts 194°
2026-05-05 19:01 53.52430 -2.41165 5511 ft 291 kts 194°
2026-05-05 19:01 53.50525 -2.41978 5360 ft 274 kts 194°
2026-05-05 19:01 53.48737 -2.42742 5186 ft 259 kts 194°
2026-05-05 19:01 53.46946 -2.43508 4290 ft 273 kts 193°
2026-05-05 19:02 53.45074 -2.44308 3546 ft 280 kts 193°
2026-05-05 19:02 53.43217 -2.45103 3300 ft 268 kts 192°
2026-05-05 19:02 53.41460 -2.45856 3148 ft 254 kts 192°
2026-05-05 19:02 53.39776 -2.46576 3030 ft 247 kts 192°
2026-05-05 19:03 53.38129 -2.47277 2992 ft 241 kts 193°
2026-05-05 19:03 53.36507 -2.47968 3003 ft 242 kts 193°
2026-05-05 19:03 53.34864 -2.48667 2992 ft 245 kts 193°
2026-05-05 19:03 53.33211 -2.49372 2994 ft 242 kts 193°
2026-05-05 19:04 53.31650 -2.50036 2961 ft 219 kts 193°
2026-05-05 19:04 53.30256 -2.50630 2947 ft 197 kts 193°
2026-05-05 19:04 53.28960 -2.51181 2962 ft 190 kts 193°
2026-05-05 19:04 53.27656 -2.51732 3001 ft 196 kts 192°
2026-05-05 19:05 53.26318 -2.51811 2967 ft 195 kts 155°
2026-05-05 19:05 53.25314 -2.50327 2947 ft 194 kts 111°
2026-05-05 19:05 53.25257 -2.48307 2819 ft 170 kts 63°
2026-05-05 19:05 53.25866 -2.46697 2604 ft 160 kts 58°
2026-05-05 19:06 53.26439 -2.45151 2404 ft 154 kts 52°
2026-05-05 19:06 53.27092 -2.43747 2190 ft 152 kts 50°
2026-05-05 19:06 53.27750 -2.42379 1964 ft 148 kts 50°
2026-05-05 19:06 53.28385 -2.41060 1810 ft 141 kts 50°
2026-05-05 19:07 53.28963 -2.39859 1610 ft 127 kts 50°
2026-05-05 19:07 53.29508 -2.38727 1431 ft 126 kts 49°
2026-05-05 19:07 53.30055 -2.37591 1258 ft 126 kts 50°
2026-05-05 19:07 53.30605 -2.36446 1061 ft 125 kts 49°
2026-05-05 19:08 53.31161 -2.35293 872 ft 127 kts 49°
2026-05-05 19:08 53.31712 -2.34151 697 ft 125 kts 51°
2026-05-05 19:08 53.32250 -2.33035 515 ft 122 kts 51°
2026-05-05 19:08 53.32771 -2.31926 355 ft 122 kts 52°
2026-05-05 19:09 53.33318 -2.30834 194 ft 123 kts 50°
2026-05-05 19:09 53.33790 -2.29852 208 ft 94 kts 51°
2026-05-05 19:09 53.34114 -2.29187 224 ft 47 kts 51°
2026-05-05 19:09 53.34317 -2.28766 225 ft 43 kts 50°
2026-05-05 19:10 53.34469 -2.28568 223 ft 26 kts 26°
2026-05-05 19:10 53.34565 -2.28500 224 ft 13 kts 21°
2026-05-05 19:10 53.34648 -2.28445 226 ft 13 kts 21°
2026-05-05 19:10 53.34723 -2.28374 228 ft 12 kts 46°
2026-05-05 19:11 53.34776 -2.28263 229 ft 12 kts 51°
2026-05-05 19:11 53.34828 -2.28155 231 ft 12 kts 51°
2026-05-05 19:11 53.34879 -2.28050 233 ft 11 kts 51°
2026-05-05 19:11 53.34932 -2.27941 235 ft 15 kts 50°
2026-05-05 19:12 53.35018 -2.27766 237 ft 23 kts 51°
2026-05-05 19:12 53.35116 -2.27563 240 ft 22 kts 51°
2026-05-05 19:12 53.35211 -2.27365 243 ft 21 kts 51°
2026-05-05 19:12 53.35317 -2.27199 246 ft 21 kts 18°
2026-05-05 19:13 53.35443 -2.27284 254 ft 20 kts 321°
2026-05-05 19:13 53.35551 -2.27431 254 ft 20 kts 321°
2026-05-05 19:13 53.35619 -2.27523 255 ft 0 kts 321°
2026-05-05 19:14 53.35622 -2.27527 255 ft 5 kts 321°
2026-05-05 19:14 53.35706 -2.27626 255 ft 20 kts 337°
2026-05-05 19:15 53.35754 -2.27658 254 ft 3 kts 339°
2026-05-05 19:15 53.35815 -2.27742 254 ft 17 kts 313°
2026-05-05 19:15 53.35909 -2.27843 254 ft 16 kts 354°
2026-05-05 19:15 53.36016 -2.27866 254 ft 16 kts 320°
2026-05-05 19:16 53.36091 -2.27991 254 ft 15 kts 314°
2026-05-05 19:16 53.36163 -2.28109 254 ft 14 kts 338°
2026-05-05 19:16 53.36258 -2.28079 254 ft 14 kts 18°
2026-05-05 19:16 53.36342 -2.28017 254 ft 13 kts 41°
2026-05-05 19:17 53.36356 -2.27996 254 ft 1 kts 41°
2026-05-05 19:17 53.36391 -2.27935 254 ft 10 kts 47°
2026-05-05 19:17 53.36434 -2.27847 254 ft 10 kts 45°
2026-05-05 19:17 53.36448 -2.27824 254 ft 2 kts 44°
2026-05-05 19:18 53.36460 -2.27804 254 ft 2 kts 45°
2026-05-05 19:18 53.36463 -2.27799 254 ft 0 kts 45°
2026-05-05 19:18 53.36464 -2.27797 254 ft 0 kts 45°
2026-05-05 19:18 53.36467 -2.27792 254 ft 0 kts 45°
2026-05-05 19:19 53.36465 -2.27797 254 ft 0 kts 45°
2026-05-05 19:19 53.36465 -2.27795 254 ft 0 kts 45°